Погода в Марково

Россия / Курганская область     55°16′33″N   65°40′45″E
темп.,
°C
ветер,
м/с
пор.,
м/с
влажн.,
%
обл.,
%
осадки,
мм/ч
давл.,
гПа
погр.,
м
15 апреля, чт
чт1523:00+8юз46835 0.0 102977
02:00+7юз468248 0.0 102882
05:00+6зюз45807 0.0 102865
08:00+8юз377634 0.0 1027159
11:00+14юз575838 0.0 1026420
14:00+17юз68465 0.0 1024793
17:00+17зюз584512 0.0 1022712
20:00+12юз47615 0.0 102178
16 апреля, пт
пт1623:00+10юз486616 0.0 102096
02:00+8зюз4870100 0.0 102095
05:00+7з3478100 0.0 101949
08:00+10сз368250 0.0 1019183
11:00+11ссв7780100 0.0 1021803
14:00+7св788072 0.0 1023657
17:00+7св677399 0.0 1024908
20:00+5всв227675 0.0 102427
17 апреля, сб
сб1723:00+4всв238056 0.0 102437
02:00+2в34805 0.0 102483
05:00+1в22815 0.0 102412
08:00+4с116928 0.0 1023164
11:00+8с34494 0.0 10231211
14:00+10ссз34395 0.0 10221759
17:00+10сз343770 0.0 10211987
20:00+7сз335698 0.0 102044
18 апреля, вс
вс1823:00+5зсз22615 0.0 101925
02:00+3зюз366847 0.0 101798
05:00+3з51181100 0.0 1015317
08:00+4зсз712664 0.0 1013738
11:00+3сз8125799 0.0 10141238
14:00+4ссз111340100 0.0 10162485
17:00+1с10144474 0.0 10202050
20:00−3ссв813430 0.0 10241457
19 апреля, пн
пн1923:00−4ссв713462 0.0 10261474
02:00−5с6114754 0.0 10271583
05:00−6с6104892 0.0 10291534
08:00−6с81039100 0.0 10311770
11:00−4с81036100 0.0 10312268
14:00−1ссв7926100 0.0 10322300
17:000с7828100 0.0 10322185
20:00−3с37395 0.0 1033168